www.pogodaiklimat.ru

Погода и климат >> Архив погоды >> Россия >> Чукотка >> Марково


АРХИВ ПОГОДЫ в Марково

Время (UTC), дата Ветер
(напр.,м/с)
 
Видим.   Явления Облачность Т
(С)
Тd
(С)
f
(%)
Тe
(С)
Тes
(С)
Комфортность P
(гПа)
Po
(гПа)
Тmin
(С)
Tmax
(С)
R
(мм)
R24
(мм)
S
(см)
00 17.01 З 3
{6}
50 км {снег} 10/3 1000 м
[Sc Ac trans Cs]
-25.0 -28.1 75 -34 -34 опасность
обморожения
1015.0 1011.7
03 17.01 З 4
{8}
4000 м слаб. снег {метель} 10/0
[Ac trans Cs]
-24.2 -27.3 75 -34 -34 опасность
обморожения
1014.7 1011.4
06 17.01 З 4
{7}
4000 м слаб. снег {метель} 10/0
[Ac trans Cs]
-23.9 -27.1 75 -34 -34 опасность
обморожения
1014.7 1011.4 -23.7 0.6
09 17.01 З 3
{7}
4000 м слаб. снег {метель} 10/0
[Ac trans Cs]
-24.1 -27.3 75 -33 -33 опасность
обморожения
1014.9 1011.6
12 17.01 З 4
{7}
4000 м слаб. снег {метель} 10/0
[Ac trans Cs]
-24.0 -28.0 69 -34 -34 опасность
обморожения
1014.9 1011.6
18 17.01 З 3
{6}
10 км снежные кристаллы {метель} 10/0
[Ac trans Cs]
-24.2 -28.9 65 -33 -33 опасность
обморожения
1014.7 1011.4 -24.5 0.2 39
00 18.01 З 2
{6}
50 км {снег} 9/0
[Ac trans]
-25.9 -31.4 60 -33 -33 опасность
обморожения
1015.4 1012.1
06 18.01 СЗ 2
{3}
20 км 4/0
[Ci fib]
-28.7 -33.3 64 -36 -36 опасность
обморожения
1016.4 1013.0 -24.1 0.0
09 18.01 СЗ 2
{3}
20 км 5/0
[Ci fib]
-30.2 -33.9 70 -38 -38 опасность
обморожения
1017.3 1013.9
12 18.01 СЗ 2
{3}
20 км 5/0
[Ci fib]
-30.1 -33.9 69 -38 -38 опасность
обморожения
1018.5 1015.1
15 18.01 СЗ 1
{3}
20 км 4/0
[Ci fib]
-31.2 -35.0 69 -35 -35 опасность
обморожения
1018.6 1015.2
18 18.01 СЗ 2
{4}
20 км 8/0
[Ac trans Cs]
-28.2 -32.0 70 -35 -35 опасность
обморожения
1019.0 1015.6 -32.7 38
21 18.01 СЗ 2
{5}
20 км 10/0
[Ac trans Cs]
-26.4 -31.0 65 -33 -33 опасность
обморожения
1020.0 1016.7
00 19.01 С 2
{5}
10 км снежные кристаллы 10/0
[As op]
-24.0 -28.0 69 -30 -30 1019.9 1016.6
03 19.01 СЗ 2
{5}
50 км {снег} 10/0
[Ac und]
-23.2 -27.1 70 -30 -30 1019.8 1016.5
06 19.01 СЗ 1
{4}
4000 м слаб. снег 10/0
[As op]
-22.8 -26.0 75 -26 -26 1020.0 1016.7 -22.8 0.0
09 19.01 СЗ 1
{4}
10 км снежные кристаллы 10/0
[Ac As Cs]
-22.3 -25.5 75 -26 -26 1020.9 1017.6
12 19.01 З 1
{3}
20 км {снег} 10/0
[Ac As Cs]
-23.9 -27.1 75 -27 -27 1021.7 1018.4
15 19.01 СЗ 1
{4}
20 км 10/0
[Ac trans Cs]
-25.8 -29.7 70 -29 -29 1022.4 1019.0
18 19.01 З 1
{2}
20 км 9/0
[Cs]
-29.5 -32.6 74 -34 -34 опасность
обморожения
1022.6 1019.2 -29.5 0.0 38
21 19.01 СЗ 1
{2}
20 км 9/0
[Ac trans Cs]
-32.2 -35.2 75 -37 -37 опасность
обморожения
1023.7 1020.3 -33.0
00 20.01 С 2
{4}
50 км 4/0
[Ci fib]
-29.9 -33.0 74 -37 -37 опасность
обморожения
1024.3 1020.9
03 20.01 С 2
{4}
50 км 4/0
[Ci fib]
-28.4 -31.5 75 -36 -36 опасность
обморожения
1024.2 1020.8
06 20.01 штиль 0
{3}
20 км 9/0
[Cs]
-30.7 -33.6 76 -31 -31 опасность
обморожения
1024.2 1020.8 -28.2
09 20.01 С 2
{3}
20 км 10/0
[Ac As Cs]
-24.9 -28.1 75 -32 -32 опасность
обморожения
1024.8 1021.4
12 20.01 С 1
{4}
20 км 10/0
[Ac trans Cs]
-23.9 -27.1 75 -27 -27 1025.1 1021.7
15 20.01 СЗ 2
{3}
20 км 10/0
[Ac trans Cs]
-22.7 -25.9 75 -29 -29 1024.6 1021.2
18 20.01 С 2
{4}
20 км 10/0
[Ac As Cs]
-21.3 -25.3 70 -27 -27 1025.0 1021.7 -30.7 38
21 20.01 З 1
{4}
20 км 10/3 600 м
[Sc Ac und]
-20.4 -24.4 70 -23 -23 1025.6 1022.3
00 21.01 СЗ 1
{3}
50 км 10/0
[As op]
-20.1 -23.4 75 -23 -23 1026.1 1022.8
03 21.01 З 1
{2}
50 км 10/0
[Ac As]
-19.6 -22.9 75 -23 -23 1026.0 1022.7
06 21.01 ЮЗ 1
{2}
20 км 10/0
[Ac trans Cs]
-20.3 -22.2 85 -23 -23 1025.9 1022.6 -19.2
09 21.01 З 1
{2}
4000 м дымка 10/3 1000 м
[Sc Ac trans Cs]
-20.1 -22.0 85 -23 -23 1026.2 1022.9
12 21.01 штиль 0
{1}
4000 м дымка 10/0
[Ac trans Cs]
-19.8 -21.7 85 -20 -20 1026.1 1022.8
15 21.01 З 1
{2}
4000 м дымка 10/0
[Ac trans Cs]
-19.7 -21.6 85 -23 -23 1025.3 1022.0
18 21.01 З 1
{3}
4000 м дымка 10/3 300 м
[St Ac trans Cs]
-21.3 -23.1 85 -24 -24 1024.3 1021.0 -21.3 38
21 21.01 З 1
{2}
4000 м дымка 10/0
[Ac und]
-23.0 -25.5 80 -26 -26 1024.0 1020.6 -23.0
00 22.01 З 1
{2}
4000 м дымка 10/3 300 м
[St Ac As Cs]
-22.6 -25.1 80 -26 -26 1023.2 1019.8
03 22.01 З 1
{1}
50 км 10/3 300 м
[St Ac trans Cs]
-22.3 -24.8 80 -26 -26 1022.0 1018.7
06 22.01 штиль 0
{1}
20 км 10/0
[Ac trans Cs]
-27.0 -30.1 75 -27 -27 1021.6 1018.3 -21.3
09 22.01 штиль 0
{1}
20 км 10/0
[Ac trans Cs]
-30.3 -33.4 74 -30 -30 1021.7 1018.3
12 22.01 штиль 0
{1}
20 км 8/0
[Ac trans Cs]
-32.1 -35.7 70 -32 -32 опасность
обморожения
1020.7 1017.3
15 22.01 штиль 0
{1}
20 км 9/0
[Ac trans Cs]
-33.8 -37.5 69 -34 -34 опасность
обморожения
1019.9 1016.4
18 22.01 штиль 0
{1}
20 км 6/0
[Ci fib]
-36.0 -39.7 69 -36 -36 опасность
обморожения
1018.9 1015.4 -36.1 38
21 22.01 штиль 0
{1}
20 км 8/0
[Cs]
-37.1 -41.5 63 -37 -37 опасность
обморожения
1019.0 1015.5 -37.3
00 23.01 штиль 0
{2}
50 км 3/0
[Ci fib]
-30.4 -33.4 75 -30 -30 1017.9 1014.5
03 23.01 штиль 0
{2}
50 км 3/0
[Ci fib]
-28.7 -31.8 75 -29 -29 1017.3 1013.9
06 23.01 штиль 0
{2}
20 км 1/0
[Ci fib]
-35.1 -38.7 69 -35 -35 опасность
обморожения
1017.9 1014.4 -28.0
09 23.01 штиль 0
{2}
20 км 3/0
[Ci fib]
-36.5 -40.7 65 -37 -37 опасность
обморожения
1017.4 1013.9
12 23.01 штиль 0
{2}
20 км ясно -38.3 -42.3 66 -38 -38 опасность
обморожения
1017.0 1013.5
15 23.01 З 1
{1}
20 км ясно -38.7 -42.7 66 -44 -44 опасность
обморожения
1016.3 1012.8
18 23.01 ЮВ 1
{1}
20 км ясно -38.6 -42.7 65 -44 -44 опасность
обморожения
1016.0 1012.5 -39.1 36
21 23.01 ЮЗ 1
{2}
20 км ясно -38.9 -43.1 64 -44 -44 опасность
обморожения
1016.4 1012.9 -39.5

 

Местоположение метеостанции Марково (Чукотка, Россия): широта 64.68 долгота 170.40 высота над уровнем моря 26 м.

В архиве по умолчанию представлена погода в Марково за последнюю неделю. Архивные данные за месяц целиком и за предыдущие месяцы, начиная с января 2011 года, Вы можете получить, выбрав интересующий диапазон дат из раскрывающегося списка и нажав кнопку "Ввод!".


*Определитесь, кто Вы:
робот инопланетянин человек

Внимание! Время в таблицах - всемирное. Для получения местного времени необходимо прибавить поправку, которая равна 12 ч.

Смотрите также архив погоды в соседних городах и на ближайших метеорологических станциях:

Погода в Танюрере (Чукотка, Россия) (191 км)
Погода в Слаутном (Камчатский край, Россия) (208 км)
Погода в Эньмувееме (Чукотка, Россия) (231 км)
Погода в Верхне-Пенжино (Камчатский край, Россия) (302 км)
Погода в Канчалане (Чукотка, Россия) (302 км)
Погода в Илирнее (Чукотка, Россия) (307 км)
Погода в Каменском (Камчатский край, Россия) (321 км)
Погода в Анадыре (Чукотка, Россия) (337 км)
Погода в Анадыре АМС (Чукотка, Россия) (338 км)
Погода в Баимке (Чукотка, Россия) (351 км)

Пояснения к столбцам:

Ветер - указаны скорость ветра в м/с - средняя за 10 мин, порывы в срок и между сроками (в фигурных скобках) и направление, откуда дует ветер: С - северный, СВ - северо-восточный, В - восточный, ЮВ - юго-восточный, Ю - южный, ЮЗ - юго-западный, З - западный, СЗ - северо-западный.
Видимость - горизонтальная дальность видимости в метрах или километрах. При видимости от 1 до 10 км при отсутствии осадков обычно наблюдается дымка, при ухудшении видимости до 1 км и менее - туман. В сухую погоду видимость может ухудшаться дымом, пылью или мглою.
Явления - указаны атмосферные явления, наблюдавшиеся в срок или в последний час перед сроком; фигурными скобками обозначены явления, наблюдавшиеся между сроками (за 1-3 часа до срока); квадратными скобками обозначены град или гололедные отложения с указанием их диаметра в мм.
Облачность - указаны через наклонную черту общая и нижняя облачность в баллах и высота нижней границы облаков в метрах; квадратными скобками обозначены формы облаков: Ci - перистые, Cs - перисто-слоистые, Cc - перисто-кучевые, Ac - высококучевые, As - высокослоистые, Sc - слоисто-кучевые, Ns - слоисто-дождевые, Cu - кучевые, Cb - кучево-дождевые. Подробнее классификацию облаков см. в Атласе облаков (PDF).
T - Температура воздуха - температура, измеренная на высоте 2 м над землей.
Td - Температура точки росы - температура, при понижении до которой содержащийся в воздухе водяной пар достигнет насыщения.
f - Относительная влажность воздуха - влажноcть воздуха, измеренная на высоте 2 м над землей.
Te - Эффективная температура - температура, которую ощущает одетый по сезону человек в тени. Характеристика душности погоды. При расчете учитывается влияние влажности воздуха и скорости ветра на теплоощущения человека.
Tes - Эффективная температура на солнце - температура, которую ощущает человек, с поправкой на солнечный нагрев. Характеристика знойности погоды. Зависит от высоты солнца над горизонтом, облачности и скорости ветра. Ночью, в пасмурную погоду, а также при ветре 12 м/с и более поправка равна нулю.
P - Атмосферное давление - приведенное к уровню моря атмосферное давление.
Po - Атмосферное давление - измеренное на уровне метеостанции атмосферное давление.
Tmin - Минимальная температура - минимум температуры воздуха на высоте 2 м над землей.
Tmax - Максимальная температура - максимум температуры воздуха на высоте 2 м над землей.
R - Количество осадков - Количество выпавших осадков за период времени, мм. При наведении курсора мыши на число - период времени, за который выпало указанное количество осадков.
R24 - Количество осадков - Количество выпавших осадков за 24 часа, мм.
S - Снежный покров - Высота снежного покрова, см. При наведении курсора мыши на число - состояние снежного покрова и степень покрытия местности в баллах.